Regional Weather Roundup
Issued by NWS

Home | Current Version | Previous Version | Text Only | Print | Product List | Glossary On
Versions: 1 2 3 4 5 6 7 8 9 10 11 12 13 14 15 16 17 18 19 20 21 22 23 24 25 26 27 28 29 30 31 32 33 34 35 36 37 38 39 40 41 42 43 44 45 46 47 48 49 50
000
ASUS43 KDTX 121510
RWRMI
MICHIGAN HOURLY REGIONAL WEATHER ROUNDUP
NATIONAL WEATHER SERVICE DETROIT/PONTIAC MI
1000 AM EST THU DEC 12 2019

NOTE: "FAIR" INDICATES FEW OR NO CLOUDS BELOW 12,000 FEET WITH NO
SIGNIFICANT WEATHER AND/OR OBSTRUCTION TO VISIBILITY.

MIZ047>049-052>055-059>063-066>070-074>076-081>083-121600-
SOUTHEAST LOWER MICHIGAN

CITY           SKY/WX    TMP DP  RH WIND       PRES   REMARKS
ADRIAN         FAIR      20  16  84 S7        30.53S WCI  11
ALMA           FAIR      22  15  75 SE10      30.45F WCI  11
ANN ARBOR      FAIR      22  15  75 S9        30.52S HAZE    WCI  12
BAD AXE        CLOUDY    19  14  79 S12G17    30.52R WCI   7
CARO           CLOUDY    22  13  67 SE8       30.50F WCI  12
DETROIT CITY   FAIR      25  16  68 S8        30.55F WCI  16
DETROIT        CLOUDY    24  17  74 S6        30.55F WCI  17
FLINT          FAIR      22  13  68 S13       30.51F WCI  10
GROSSE ILE     FAIR      27  19  71 S13       30.54F WCI  17
HILLSDALE      FAIR      19  15  82 SE10      30.45F WCI   8
HOWELL         FAIR      22  15  74 SE10      30.48F WCI  11

CITY           SKY/WX    TMP DP  RH WIND       PRES   REMARKS
JACKSON        FAIR      22  15  75 SE7       30.46F WCI  13
LAMBERTVILLE   FAIR      24  17  74 S8        30.54S WCI  15
LANSING        FAIR      21  14  74 SE15      30.45F WCI   8
LAPEER         PTSUNNY   21  13  69 SE5       30.52F WCI  15
MASON            N/A     21  15  78 S12       30.46F WCI   9
MONROE         FAIR      24  17  73 S9        30.55S WCI  14
PONTIAC        CLOUDY    21  12  68 S8        30.51S WCI  11
PORT HOPE        N/A     20  11  68 VRB5      30.52  WCI  13
PORT HURON     FAIR      21  14  73 SE5       30.56S WCI  15
TRI CITIES     PTSUNNY   21  12  68 SE13      30.49F WCI   9
MIDLAND        PTSUNNY   22  14  72 SE8       30.47F WCI  12
TROY           FAIR      24  16  71 S5        30.55F WCI  18
SAGINAW HB     PTSUNNY   21  14  73 S13       30.50F WCI   9
$$
MIZ043>046-050>051-056>058-064>065-071>073-077>080-121600-
SOUTHWEST LOWER MICHIGAN

CITY           SKY/WX    TMP DP  RH WIND       PRES   REMARKS
BATTLE CREEK   FAIR      22  16  78 S12       30.42F WCI  10
BENTON HARBOR  CLOUDY    26  19  74 S14G22    30.35F WCI  14
BIG RAPIDS     FAIR      21  15  75 SE12      30.36F WCI  10
COLDWATER      FAIR      23  19  85 SE12G17   30.43F WCI  12
FREMONT        FAIR      23  16  72 SE8       30.35F WCI  14
HOLLAND        CLOUDY    23  18  81 SE15      30.36F WCI  10
GRAND RAPIDS   CLOUDY    22  14  71 SE15      30.39F WCI   9
IONIA          FAIR      21  14  75 SE14      30.41F WCI   8
KALAMAZOO      FAIR      23  16  74 S12G22    30.40F WCI  12
LUDINGTON      PTSUNNY   23  15  73 SE15      30.30F WCI  10
MARSHALL       FAIR      22  14  71 SE9       30.43F WCI  12
MOUNT PLEASANT PTSUNNY   22  15  74 SE10      30.43F WCI  12
MUSKEGON       CLOUDY    24  15  68 SE17      30.34F WCI  11
SOUTH HAVEN    CLOUDY    26  19  75 SE9       30.36F WCI  17
$$
MIZ016>042-121600-
NORTHERN LOWER MICHIGAN

CITY           SKY/WX    TMP DP  RH WIND       PRES   REMARKS
ALPENA         LGT SNOW  16  12  84 S8        30.47F FOG     WCI   5
BEAVER ISLAND  SNOW      21  19  93 E3        30.36F VSB 1/2
BELLAIRE       LGT SNOW  19  15  82 SE6       30.40F WCI  11
CADILLAC       CLOUDY    17  11  78 SE12      30.32F WCI   4
CHARLEVOIX     LGT SNOW  18  13  81 SE8       30.38F WCI   8
FRANKFORT      CLOUDY    21  14  75 SE9       30.33F WCI  10
GAYLORD        SNOW      14  11  87 S12G18    30.37F VSB 1/2 WCI   0
GRAYLING       FLURRIES  16  14  89 SE10      30.38F WCI   4
HARBOR SPRINGS LGT SNOW  19  17  93 S3        30.41F VSB 1
HOUGHTON LAKE  CLOUDY    17  11  77 SE8       30.41F WCI   7
MANISTEE       FAIR      21  14  74 E9        30.31F WCI  11
OSCODA         CLOUDY    19  14  79 CALM      30.50F
PELLSTON       LGT SNOW  18  15  88 SE7       30.41F FOG     WCI   9
ROGERS CITY    LGT SNOW  17  13  86 S9        30.46S WCI   5
TRAVERSE CITY  FLURRIES  20  14  77 SE8       30.34F WCI  10
$$
MIZ007>008-015-121600-
EASTERN UPPER MICHIGAN

CITY           SKY/WX    TMP DP  RH WIND       PRES   REMARKS
KINROSS        FLURRIES  15  12  88 SE5       30.39F WCI   8
MACKINAC ISLAN LGT SNOW  22  21  96 S7        30.39F WCI  14
NEWBERRY       LGT SNOW  13  10  90 SW5       30.36F WCI   5
S. S. MARIE    LGT SNOW  16  10  77 S3        30.40S
MUNISING         N/A      8   4  83 S6        30.35F WCI  -2
$$
MIZ004>006-011>014-085-121600-
CENTRAL UPPER MICHIGAN

CITY           SKY/WX    TMP DP  RH WIND       PRES   REMARKS
MANISTIQUE     LGT SNOW   9   6  89 N5        30.34F VSB 1   WCI   1
ESCANABA       SNOW       9   6  88 NE6       30.33F VSB 1/2 WCI  -1
MENOMINEE      FLURRIES  11   8  88 NE9       30.25F WCI  -2
SAWYER-GWINN   LGT SNOW   3   0  85 CALM      30.28F VSB 3/4
$$
MIZ001>003-009>011-084-121600-
WESTERN UPPER MICHIGAN

CITY           SKY/WX    TMP DP  RH WIND       PRES   REMARKS
IRON MOUNTAIN  HVY SNOW   5   0  79 N7        30.23F VSB 1/4 WCI  -7
HOUGHTON       LGT SNOW   8   3  80 S3        30.25F VSB 3/4
COPPER HARBOR    N/A     14  10  84 SW6       30.30F WCI   5
IRONWOOD       LGT SNOW   5   2  87 E7        30.19F FOG     WCI  -7
$$

ABBREVIATIONS USED IN REMARKS
   TC - TEMPERATURE IN CELSIUS
  WCI - WIND CHILL INDEX
   HX - HEAT INDEX
  VSB - VISIBILITY




USA.gov is the U.S. government's official web portal to all federal, state and local government web resources and services.